Location: �perlecques
(50.8057°N, 2.1521°E)
Time: 19:22:30
(UTC+00:00)

Vanguard 3 - Pass Details

Date: 04 August 2021
Orbit: 510 x 3260 km, 33.3° (Epoch: 17 September)

Event Time Altitude Azimuth Distance (km) Brightness Sun altitude
Rises 23:06:55 0° 273° (W) 6,923 12.1 -21.3°
Reaches altitude 10° 23:13:19 10° 260° (W) 6,118 11.6 -21.5°
Maximum altitude 23:25:13 20° 222° (SW) 5,319 10.9 -21.9°
Enters shadow 23:30:09 18° 204° (SSW) 5,356 10.8 -22.0°
